Regional Weather Roundup
Issued by NWS

Home | Current Version | Previous Version | Text Only | Print | Product List | Glossary On
Versions: 1 2 3 4 5 6 7 8 9 10 11 12 13 14 15 16 17 18 19 20 21 22 23 24 25 26 27 28 29 30 31 32 33 34 35 36 37 38 39 40 41 42 43 44 45 46 47 48 49 50
249
ASUS44 KJAN 192010
RWRMS

MISSISSIPPI HOURLY WEATHER ROUNDUP
NATIONAL WEATHER SERVICE JACKSON MS
300 PM CDT SAT APR 19 2014

NOTE: "FAIR: INDICATES FEW OR NO CLOUDS BELOW 12,000 FEET WITH NO
SIGNIFICANT WEATHER AND/OR OBSTRUCTIONS TO VISIBILITY.

MSZ001>002-007>008-010>013-018>021-025>028-034>036-192100-
NORTHWEST MISSISSIPPI

CITY           SKY/WX    TMP DP  RH WIND       PRES   REMARKS
CLARKSDALE       N/A     77  48  36 N9G16     30.16F
CLEVELAND      FAIR      77  50  38 N9        30.15F
GREENWOOD      SUNNY     78  49  35 VRB6      30.13F
GREENVILLE     MOSUNNY   78  51  38 N8        30.15F
GRENADA        FAIR      77  43  29 CALM      30.13F
OLIVE BRANCH   MOSUNNY   75  43  31 N12       30.16F
OXFORD         FAIR      75  39  27 N6        30.15F
TUNICA         CLEAR     75  43  31 NW6       30.16F
$$

MSZ003>006-009-014>017-022>024-029>033-037>039-192100-
NORTHEAST MISSISSIPPI

CITY           SKY/WX    TMP DP  RH WIND       PRES   REMARKS
BELMONT        FAIR      76  46  34 NE9       30.13F
COLUMBUS AFB   SUNNY     79  42  27 N8        30.11F
CORINTH        FAIR      77  39  25 NE14      30.14F
GOLDN TRIANGLE MOSUNNY   79  48  34 N10       30.14F
STARKVILLE     FAIR      75  45  33 N13G18    30.12F
TUPELO         SUNNY     77  41  27 N13       30.12F
$$

MSZ040-058-192100-
CENTRAL MISSISSIPPI

CITY           SKY/WX    TMP DP  RH WIND       PRES   REMARKS
JACKSON INTL   MOSUNNY   77  49  37 N13       30.13F
JACKSON HAWKNS MOSUNNY   75  48  38 VRB5      30.14F
MERIDIAN KEY   SUNNY     78  46  32 N16G24    30.09F
MERIDIAN NAS   SUNNY     78  47  33 NE12G18   30.10F
RAYMOND        FAIR      73  68  83 CALM      30.14F
VICKSBURG      SUNNY     77  52  41 N8        30.15F
$$

MSZ059>079-192100-
SOUTH MISSISSIPPI

CITY           SKY/WX    TMP DP  RH WIND       PRES   REMARKS
BROOKHAVEN     FAIR      75  52  43 NW6       30.14F
COLUMBIA       FAIR      77  52  41 MISG      30.10F
HATTIESBURG    SUNNY     77  51  40 NW10G17   30.10F
MCCOMB         MOSUNNY   77  49  37 NW8       30.12F
NATCHEZ        SUNNY     75  52  43 N10       30.15F
PINE BELT      MOSUNNY   77  52  41 N8        30.12F
$$

MSZ080>082-192100-
COASTAL MISSISSIPPI

CITY           SKY/WX    TMP DP  RH WIND       PRES   REMARKS
BAY ST LOUIS   SUNNY     79  46  31 N9        30.09F
BILOXI         SUNNY     78  51  39 N10       30.07F
PASCAGOULA     SUNNY     77  51  40 N13       30.05F
GULFPORT       SUNNY     81  50  33 N14G22    30.07F
$$



USA.gov is the U.S. government's official web portal to all federal, state and local government web resources and services.